Orbital elements of FENGYUN 1C DEB
| Launched | 9 May 1999 |
| Flight ended | – |
| Launch site | Taiyuan Space Center, PRC |
| Owner | People's Republic of China |
| NORAD ID | 31098 |
| Date fetched |
Epoch osculation |
Inc. [°] |
Ecc. | RA asc node [hr] |
Arg Peri. [°] |
Mean anom [°] |
Mean motion [rev/day] |
Abs. mag |
| Date fetched |
Epoch osculation |
Inc. [°] |
Ecc. | RA asc node [hr] |
Arg Peri. [°] |
Mean anom [°] |
Mean motion [rev/day] |
Abs. mag |
| 2026 May 09 17:57 | 2026 May 05 07:52:56 | 98.8747 | 0.00150 | 17.1129 | 173.8195 | 186.3188 | 14.55535 | – |
| 2026 May 08 17:57 | 2026 May 05 07:52:56 | 98.8747 | 0.00150 | 17.1129 | 173.8195 | 186.3188 | 14.55535 | – |
| 2026 May 07 17:58 | 2026 May 05 07:52:56 | 98.8747 | 0.00150 | 17.1129 | 173.8195 | 186.3188 | 14.55535 | – |
| 2026 May 06 17:57 | 2026 May 05 07:52:56 | 98.8747 | 0.00150 | 17.1129 | 173.8195 | 186.3188 | 14.55535 | – |
| 2026 May 05 17:57 | 2026 May 05 07:52:56 | 98.8747 | 0.00150 | 17.1129 | 173.8195 | 186.3188 | 14.55535 | – |
| 2026 May 04 17:57 | 2026 Apr 30 07:26:18 | 98.8737 | 0.00148 | 16.7576 | 186.9254 | 186.3188 | 14.55535 | – |
| 2026 May 03 17:57 | 2026 Apr 30 07:26:18 | 98.8737 | 0.00148 | 16.7576 | 186.9254 | 186.3188 | 14.55535 | – |
| 2026 May 02 17:57 | 2026 Apr 30 07:26:18 | 98.8737 | 0.00148 | 16.7576 | 186.9254 | 186.3188 | 14.55535 | – |
| 2026 May 01 17:56 | 2026 Apr 30 07:26:18 | 98.8737 | 0.00148 | 16.7576 | 186.9254 | 186.3188 | 14.55535 | – |
| 2026 Apr 30 17:56 | 2026 Apr 30 07:26:18 | 98.8737 | 0.00148 | 16.7576 | 186.9254 | 186.3188 | 14.55535 | – |
| 2026 Apr 29 17:57 | 2026 Apr 24 07:52:56 | 98.8730 | 0.00145 | 16.3342 | 202.9501 | 186.3188 | 14.55535 | – |
| 2026 Apr 28 17:56 | 2026 Apr 24 07:52:56 | 98.8730 | 0.00145 | 16.3342 | 202.9501 | 186.3188 | 14.55535 | – |
| 2026 Apr 27 17:58 | 2026 Apr 24 07:52:56 | 98.8730 | 0.00145 | 16.3342 | 202.9501 | 186.3188 | 14.55535 | – |
| 2026 Apr 26 17:58 | 2026 Apr 24 07:52:56 | 98.8730 | 0.00145 | 16.3342 | 202.9501 | 186.3188 | 14.55535 | – |
| 2026 Apr 25 17:58 | 2026 Apr 24 07:52:56 | 98.8730 | 0.00145 | 16.3342 | 202.9501 | 186.3188 | 14.55535 | – |
| 2026 Apr 24 17:59 | 2026 Apr 24 07:52:56 | 98.8730 | 0.00145 | 16.3342 | 202.9501 | 186.3188 | 14.55535 | – |
| 2026 Apr 23 17:57 | 2026 Apr 19 07:25:03 | 98.8730 | 0.00140 | 15.9789 | 216.6710 | 186.3188 | 14.55535 | – |
| 2026 Apr 22 17:57 | 2026 Apr 19 07:25:03 | 98.8730 | 0.00140 | 15.9789 | 216.6710 | 186.3188 | 14.55535 | – |
| 2026 Apr 21 17:57 | 2026 Apr 19 07:25:03 | 98.8730 | 0.00140 | 15.9789 | 216.6710 | 186.3188 | 14.55535 | – |
| 2026 Apr 20 17:57 | 2026 Apr 19 07:25:03 | 98.8730 | 0.00140 | 15.9789 | 216.6710 | 186.3188 | 14.55535 | – |
| 2026 Apr 19 17:58 | 2026 Apr 19 07:25:03 | 98.8730 | 0.00140 | 15.9789 | 216.6710 | 186.3188 | 14.55535 | – |
| 2026 Apr 18 17:56 | 2026 Apr 13 01:14:25 | 98.8712 | 0.00133 | 15.5362 | 234.6658 | 186.3188 | 14.55535 | – |
| 2026 Apr 16 17:57 | 2026 Apr 13 01:14:25 | 98.8712 | 0.00133 | 15.5362 | 234.6658 | 186.3188 | 14.55535 | – |
| 2026 Apr 14 17:57 | 2026 Apr 13 01:14:25 | 98.8712 | 0.00133 | 15.5362 | 234.6658 | 186.3188 | 14.55535 | – |
| 2026 Apr 13 17:57 | 2026 Apr 13 01:14:25 | 98.8712 | 0.00133 | 15.5362 | 234.6658 | 186.3188 | 14.55535 | – |
| 2026 Apr 12 17:57 | 2026 Apr 08 13:57:57 | 98.8715 | 0.00128 | 15.2200 | 247.9666 | 186.3188 | 14.55535 | – |